Time,TemperatureF,DewpointF,PressureIn,WindDirection,WindDirectionDegrees,WindSpeedMPH,WindSpeedGustMPH,Humidity,HourlyPrecipIn,Conditions,Clouds,dailyrainin,SoftwareType,DateUTC
2013-01-22 00:00:00,0.8,-7.6,30.46,NW,310,3.0,3.0,67,0.00,,,0.00,Wunderground v.1.15,2013-01-22 06:00:00,
2013-01-22 00:05:00,0.7,-7.7,30.46,NW,304,2.0,3.0,67,0.00,,,0.00,Wunderground v.1.15,2013-01-22 06:05:00,
2013-01-22 00:15:00,0.6,-7.5,30.47,NW,311,3.0,3.0,68,0.00,,,0.00,Wunderground v.1.15,2013-01-22 06:15:00,
2013-01-22 00:20:00,0.6,-7.5,30.47,North,350,4.0,5.0,68,0.00,,,0.00,Wunderground v.1.15,2013-01-22 06:20:00,
2013-01-22 00:30:00,0.5,-7.9,30.46,WNW,303,3.0,6.0,67,0.00,,,0.00,Wunderground v.1.15,2013-01-22 06:30:00,
2013-01-22 00:35:00,0.3,-7.8,30.46,NW,323,1.0,6.0,68,0.00,,,0.00,Wunderground v.1.15,2013-01-22 06:35:00,
2013-01-22 00:40:00,0.1,-8.0,30.47,NW,309,2.0,2.0,68,0.00,,,0.00,Wunderground v.1.15,2013-01-22 06:40:00,
2013-01-22 00:50:00,0.0,-8.1,30.46,NNW,329,1.0,1.0,68,0.00,,,0.00,Wunderground v.1.15,2013-01-22 06:50:00,
2013-01-22 00:55:00,-0.1,-8.2,30.47,NW,314,1.0,1.0,68,0.00,,,0.00,Wunderground v.1.15,2013-01-22 06:55:00,
2013-01-22 01:00:00,-0.3,-8.4,30.46,NW,314,1.0,1.0,68,0.00,,,0.00,Wunderground v.1.15,2013-01-22 07:00:00,
2013-01-22 01:05:00,-0.4,-8.2,30.46,WNW,298,2.0,5.0,69,0.00,,,0.00,Wunderground v.1.15,2013-01-22 07:05:00,
2013-01-22 01:15:00,-0.4,-8.2,30.47,NNW,330,4.0,6.0,69,0.00,,,0.00,Wunderground v.1.15,2013-01-22 07:15:00,
2013-01-22 01:20:00,-0.5,-8.2,30.47,NNW,331,4.0,4.0,69,0.00,,,0.00,Wunderground v.1.15,2013-01-22 07:20:00,
2013-01-22 01:30:00,-0.5,-8.2,30.47,NNW,335,4.0,4.0,69,0.00,,,0.00,Wunderground v.1.15,2013-01-22 07:30:00,
2013-01-22 01:35:00,-0.7,-8.4,30.47,WNW,296,4.0,6.0,69,0.00,,,0.00,Wunderground v.1.15,2013-01-22 07:35:00,
2013-01-22 01:40:00,-0.7,-8.4,30.47,NW,315,4.0,4.0,69,0.00,,,0.00,Wunderground v.1.15,2013-01-22 07:40:00,
2013-01-22 01:45:00,-0.9,-8.3,30.47,NW,323,3.0,4.0,70,0.00,,,0.00,Wunderground v.1.15,2013-01-22 07:45:00,
2013-01-22 01:50:00,-1.0,-8.4,30.48,North,350,2.0,5.0,70,0.00,,,0.00,Wunderground v.1.15,2013-01-22 07:50:00,
2013-01-22 02:00:00,-1.1,-8.5,30.49,NNW,344,3.0,3.0,70,0.00,,,0.00,Wunderground v.1.15,2013-01-22 08:00:00,
2013-01-22 02:05:00,-1.1,-8.2,30.49,NNW,336,3.0,3.0,71,0.00,,,0.00,Wunderground v.1.15,2013-01-22 08:05:00,
2013-01-22 02:15:00,-1.3,-8.4,30.49,NNW,334,2.0,5.0,71,0.00,,,0.00,Wunderground v.1.15,2013-01-22 08:15:00,
2013-01-22 02:25:00,-1.6,-8.7,30.50,NW,306,1.0,1.0,71,0.00,,,0.00,Wunderground v.1.15,2013-01-22 08:25:00,
2013-01-22 02:30:00,-1.6,-8.7,30.50,NNW,333,2.0,2.0,71,0.00,,,0.00,Wunderground v.1.15,2013-01-22 08:30:00,
2013-01-22 02:35:00,-1.6,-8.4,30.50,NW,321,2.0,2.0,72,0.00,,,0.00,Wunderground v.1.15,2013-01-22 08:35:00,
2013-01-22 02:40:00,-1.7,-8.8,30.50,NNW,335,3.0,3.0,71,0.00,,,0.00,Wunderground v.1.15,2013-01-22 08:40:00,
2013-01-22 02:45:00,-1.7,-8.8,30.50,NNW,337,4.0,4.0,71,0.00,,,0.00,Wunderground v.1.15,2013-01-22 08:45:00,
2013-01-22 02:55:00,-1.8,-8.9,30.50,WNW,291,3.0,4.0,71,0.00,,,0.00,Wunderground v.1.15,2013-01-22 08:55:00,
2013-01-22 03:00:00,-1.9,-9.0,30.50,NW,325,3.0,4.0,71,0.00,,,0.00,Wunderground v.1.15,2013-01-22 09:00:00,
2013-01-22 03:05:00,-2.1,-9.2,30.50,NNW,333,3.0,4.0,71,0.00,,,0.00,Wunderground v.1.15,2013-01-22 09:05:00,
2013-01-22 03:15:00,-2.2,-9.0,30.50,North,350,4.0,4.0,72,0.00,,,0.00,Wunderground v.1.15,2013-01-22 09:15:00,
2013-01-22 03:20:00,-2.3,-9.1,30.50,NW,326,4.0,4.0,72,0.00,,,0.00,Wunderground v.1.15,2013-01-22 09:20:00,
2013-01-22 03:25:00,-2.4,-9.2,30.50,NW,322,4.0,4.0,72,0.00,,,0.00,Wunderground v.1.15,2013-01-22 09:25:00,
2013-01-22 03:35:00,-2.5,-9.3,30.50,NNW,336,4.0,5.0,72,0.00,,,0.00,Wunderground v.1.15,2013-01-22 09:35:00,
2013-01-22 03:40:00,-2.6,-9.4,30.50,NNW,334,4.0,4.0,72,0.00,,,0.00,Wunderground v.1.15,2013-01-22 09:40:00,
2013-01-22 03:45:00,-2.7,-9.5,30.50,NNW,341,3.0,4.0,72,0.00,,,0.00,Wunderground v.1.15,2013-01-22 09:45:00,
2013-01-22 03:50:00,-2.8,-9.6,30.50,NNW,335,3.0,3.0,72,0.00,,,0.00,Wunderground v.1.15,2013-01-22 09:50:00,
2013-01-22 03:55:00,-2.9,-9.7,30.50,NNW,333,3.0,3.0,72,0.00,,,0.00,Wunderground v.1.15,2013-01-22 09:55:00,
2013-01-22 04:05:00,-3.1,-9.6,30.50,NNW,344,3.0,3.0,73,0.00,,,0.00,Wunderground v.1.15,2013-01-22 10:05:00,
2013-01-22 04:15:00,-3.3,-10.1,30.50,NW,325,2.0,3.0,72,0.00,,,0.00,Wunderground v.1.15,2013-01-22 10:15:00,
2013-01-22 04:20:00,-3.5,-10.0,30.50,NW,323,1.0,1.0,73,0.00,,,0.00,Wunderground v.1.15,2013-01-22 10:20:00,
2013-01-22 04:25:00,-3.5,-10.0,30.50,NNW,348,1.0,1.0,73,0.00,,,0.00,Wunderground v.1.15,2013-01-22 10:25:00,
2013-01-22 04:30:00,-3.6,-10.1,30.50,NNW,337,1.0,3.0,73,0.00,,,0.00,Wunderground v.1.15,2013-01-22 10:30:00,
2013-01-22 04:40:00,-3.6,-10.4,30.51,NNW,329,3.0,3.0,72,0.00,,,0.00,Wunderground v.1.15,2013-01-22 10:40:00,
2013-01-22 04:45:00,-3.7,-10.5,30.50,NW,323,3.0,3.0,72,0.00,,,0.00,Wunderground v.1.15,2013-01-22 10:45:00,
2013-01-22 04:50:00,-3.8,-10.3,30.51,NW,322,1.0,1.0,73,0.00,,,0.00,Wunderground v.1.15,2013-01-22 10:50:00,
2013-01-22 05:00:00,-4.0,-10.5,30.51,WNW,303,0.0,6.0,73,0.00,,,0.00,Wunderground v.1.15,2013-01-22 11:00:00,
2013-01-22 05:05:00,-4.1,-10.6,30.51,NW,314,2.0,6.0,73,0.00,,,0.00,Wunderground v.1.15,2013-01-22 11:05:00,
2013-01-22 05:15:00,-4.1,-10.6,30.52,NNW,332,1.0,3.0,73,0.00,,,0.00,Wunderground v.1.15,2013-01-22 11:15:00,
2013-01-22 05:20:00,-4.2,-10.7,30.52,NNW,332,1.0,1.0,73,0.00,,,0.00,Wunderground v.1.15,2013-01-22 11:20:00,
2013-01-22 05:25:00,-4.2,-10.7,30.52,NNW,331,0.0,1.0,73,0.00,,,0.00,Wunderground v.1.15,2013-01-22 11:25:00,
2013-01-22 05:30:00,-4.4,-10.9,30.52,NNW,344,1.0,1.0,73,0.00,,,0.00,Wunderground v.1.15,2013-01-22 11:30:00,
2013-01-22 05:35:00,-4.3,-10.8,30.52,NNW,344,0.0,1.0,73,0.00,,,0.00,Wunderground v.1.15,2013-01-22 11:35:00,
2013-01-22 05:45:00,-4.4,-10.9,30.52,NNW,344,0.0,0.0,73,0.00,,,0.00,Wunderground v.1.15,2013-01-22 11:45:00,
2013-01-22 05:50:00,-4.4,-10.9,30.52,NNW,344,0.0,0.0,73,0.00,,,0.00,Wunderground v.1.15,2013-01-22 11:50:00,
2013-01-22 05:55:00,-4.5,-11.0,30.52,NNW,344,0.0,0.0,73,0.00,,,0.00,Wunderground v.1.15,2013-01-22 11:55:00,
2013-01-22 06:00:00,-4.6,-10.8,30.52,NNW,344,0.0,0.0,74,0.00,,,0.00,Wunderground v.1.15,2013-01-22 12:00:00,
2013-01-22 06:05:00,-4.8,-11.0,30.53,NNW,344,0.0,0.0,74,0.00,,,0.00,Wunderground v.1.15,2013-01-22 12:05:00,
2013-01-22 06:15:00,-5.0,-11.2,30.53,NNW,344,0.0,0.0,74,0.00,,,0.00,Wunderground v.1.15,2013-01-22 12:15:00,
2013-01-22 06:25:00,-5.0,-10.9,30.53,NNW,344,0.0,0.0,75,0.00,,,0.00,Wunderground v.1.15,2013-01-22 12:25:00,
2013-01-22 06:30:00,-5.0,-10.9,30.53,NW,325,0.0,1.0,75,0.00,,,0.00,Wunderground v.1.15,2013-01-22 12:30:00,
2013-01-22 06:35:00,-4.9,-10.8,30.53,NW,318,1.0,1.0,75,0.00,,,0.00,Wunderground v.1.15,2013-01-22 12:35:00,
2013-01-22 06:40:00,-4.8,-10.7,30.53,NW,319,1.0,1.0,75,0.00,,,0.00,Wunderground v.1.15,2013-01-22 12:40:00,
2013-01-22 06:45:00,-4.8,-10.7,30.53,NW,319,0.0,1.0,75,0.00,,,0.00,Wunderground v.1.15,2013-01-22 12:45:00,
2013-01-22 06:55:00,-4.8,-10.7,30.54,NW,319,0.0,0.0,75,0.00,,,0.00,Wunderground v.1.15,2013-01-22 12:55:00,
2013-01-22 07:00:00,-4.9,-10.8,30.54,NW,318,0.0,0.0,75,0.00,,,0.00,Wunderground v.1.15,2013-01-22 13:00:00,
2013-01-22 07:05:00,-5.0,-10.9,30.54,NW,318,0.0,0.0,75,0.00,,,0.00,Wunderground v.1.15,2013-01-22 13:05:00,
2013-01-22 07:15:00,-5.0,-10.6,30.54,NW,318,0.0,2.0,76,0.00,,,0.00,Wunderground v.1.15,2013-01-22 13:15:00,
2013-01-22 07:20:00,-5.0,-10.6,30.54,NW,318,0.0,0.0,76,0.00,,,0.00,Wunderground v.1.15,2013-01-22 13:20:00,
2013-01-22 07:25:00,-4.9,-10.3,30.54,NW,319,0.0,0.0,77,0.00,,,0.00,Wunderground v.1.15,2013-01-22 13:25:00,
2013-01-22 07:35:00,-4.7,-10.1,30.54,NW,319,0.0,0.0,77,0.00,,,0.00,Wunderground v.1.15,2013-01-22 13:35:00,
2013-01-22 07:40:00,-4.7,-10.1,30.55,NW,318,0.0,0.0,77,0.00,,,0.00,Wunderground v.1.15,2013-01-22 13:40:00,
2013-01-22 07:50:00,-4.6,-10.0,30.55,NW,318,0.0,0.0,77,0.00,,,0.00,Wunderground v.1.15,2013-01-22 13:50:00,
2013-01-22 07:55:00,-4.3,-9.4,30.55,WNW,296,1.0,1.0,78,0.00,,,0.00,Wunderground v.1.15,2013-01-22 13:55:00,
2013-01-22 08:00:00,-4.0,-9.1,30.55,WNW,290,1.0,1.0,78,0.00,,,0.00,Wunderground v.1.15,2013-01-22 14:00:00,
2013-01-22 08:05:00,-3.6,-8.7,30.55,WNW,295,1.0,1.0,78,0.00,,,0.00,Wunderground v.1.15,2013-01-22 14:05:00,
2013-01-22 08:15:00,-3.0,-8.4,30.55,WNW,288,2.0,2.0,77,0.00,,,0.00,Wunderground v.1.15,2013-01-22 14:15:00,
2013-01-22 08:20:00,-2.6,-8.0,30.55,NW,304,2.0,2.0,77,0.00,,,0.00,Wunderground v.1.15,2013-01-22 14:20:00,
2013-01-22 08:25:00,-2.4,-8.1,30.55,West,265,3.0,4.0,76,0.00,,,0.00,Wunderground v.1.15,2013-01-22 14:25:00,
2013-01-22 08:35:00,-1.9,-7.6,30.55,West,261,2.0,3.0,76,0.00,,,0.00,Wunderground v.1.15,2013-01-22 14:35:00,
2013-01-22 08:40:00,-1.5,-7.2,30.56,West,267,3.0,4.0,76,0.00,,,0.00,Wunderground v.1.15,2013-01-22 14:40:00,
2013-01-22 08:45:00,-1.2,-6.9,30.56,WNW,284,3.0,4.0,76,0.00,,,0.00,Wunderground v.1.15,2013-01-22 14:45:00,
2013-01-22 08:50:00,-0.9,-6.6,30.56,NW,326,3.0,3.0,76,0.00,,,0.00,Wunderground v.1.15,2013-01-22 14:50:00,
2013-01-22 09:00:00,-0.8,-6.8,30.56,West,272,4.0,7.0,75,0.00,,,0.00,Wunderground v.1.15,2013-01-22 15:00:00,
2013-01-22 09:05:00,-0.5,-6.5,30.56,NNW,338,4.0,7.0,75,0.00,,,0.00,Wunderground v.1.15,2013-01-22 15:05:00,
2013-01-22 09:15:00,-0.1,-6.7,30.56,WNW,300,5.0,6.0,73,0.00,,,0.00,Wunderground v.1.15,2013-01-22 15:15:00,
2013-01-22 09:20:00,0.2,-6.4,30.56,West,275,5.0,5.0,73,0.00,,,0.00,Wunderground v.1.15,2013-01-22 15:20:00,
2013-01-22 09:25:00,0.2,-6.7,30.56,NW,320,4.0,7.0,72,0.00,,,0.00,Wunderground v.1.15,2013-01-22 15:25:00,
2013-01-22 09:35:00,0.8,-5.8,30.56,WNW,287,4.0,5.0,73,0.00,,,0.00,Wunderground v.1.15,2013-01-22 15:35:00,
2013-01-22 09:40:00,1.4,-5.5,30.56,NW,324,3.0,3.0,72,0.00,,,0.00,Wunderground v.1.15,2013-01-22 15:40:00,
2013-01-22 09:45:00,1.5,-5.4,30.56,NW,306,3.0,3.0,72,0.00,,,0.00,Wunderground v.1.15,2013-01-22 15:45:00,
2013-01-22 09:50:00,1.8,-5.2,30.56,West,266,4.0,4.0,72,0.00,,,0.00,Wunderground v.1.15,2013-01-22 15:50:00,
2013-01-22 10:00:00,2.2,-5.4,30.56,WNW,295,3.0,3.0,70,0.00,,,0.00,Wunderground v.1.15,2013-01-22 16:00:00,
2013-01-22 10:05:00,2.2,-5.4,30.57,NNW,346,2.0,3.0,70,0.00,,,0.00,Wunderground v.1.15,2013-01-22 16:05:00,
2013-01-22 10:15:00,2.8,-4.8,30.56,NNW,342,3.0,3.0,70,0.00,,,0.00,Wunderground v.1.15,2013-01-22 16:15:00,
2013-01-22 10:20:00,3.8,-4.1,30.57,NW,310,3.0,3.0,69,0.00,,,0.00,Wunderground v.1.15,2013-01-22 16:20:00,
2013-01-22 10:25:00,3.9,-4.6,30.56,NW,325,3.0,3.0,67,0.00,,,0.00,Wunderground v.1.15,2013-01-22 16:25:00,
2013-01-22 10:30:00,4.4,-3.8,30.56,West,271,2.0,2.0,68,0.00,,,0.00,Wunderground v.1.15,2013-01-22 16:30:00,
2013-01-22 10:40:00,5.1,-4.4,30.57,West,259,4.0,4.0,64,0.00,,,0.00,Wunderground v.1.15,2013-01-22 16:40:00,
2013-01-22 10:45:00,4.6,-5.2,30.56,NW,325,4.0,8.0,63,0.00,,,0.00,Wunderground v.1.15,2013-01-22 16:45:00,
2013-01-22 10:50:00,4.3,-5.5,30.56,West,279,6.0,6.0,63,0.00,,,0.00,Wunderground v.1.15,2013-01-22 16:50:00,
2013-01-22 10:55:00,5.1,-4.8,30.56,NW,321,5.0,6.0,63,0.00,,,0.00,Wunderground v.1.15,2013-01-22 16:55:00,
2013-01-22 11:05:00,5.8,-3.8,30.56,WNW,291,4.0,7.0,64,0.00,,,0.00,Wunderground v.1.15,2013-01-22 17:05:00,
2013-01-22 11:15:00,6.5,-3.4,30.56,NNW,333,5.0,5.0,63,0.00,,,0.00,Wunderground v.1.15,2013-01-22 17:15:00,
2013-01-22 11:20:00,6.4,-3.9,30.57,NW,313,5.0,5.0,62,0.00,,,0.00,Wunderground v.1.15,2013-01-22 17:20:00,
2013-01-22 11:25:00,6.2,-3.7,30.56,NW,310,4.0,5.0,63,0.00,,,0.00,Wunderground v.1.15,2013-01-22 17:25:00,
2013-01-22 11:30:00,6.7,-3.6,30.56,WSW,253,4.0,4.0,62,0.00,,,0.00,Wunderground v.1.15,2013-01-22 17:30:00,
2013-01-22 11:40:00,7.6,-3.1,30.56,WNW,283,4.0,4.0,61,0.00,,,0.00,Wunderground v.1.15,2013-01-22 17:40:00,
2013-01-22 11:45:00,8.1,-2.6,30.56,WNW,302,4.0,4.0,61,0.00,,,0.00,Wunderground v.1.15,2013-01-22 17:45:00,
2013-01-22 11:50:00,7.2,-3.8,30.56,WSW,258,5.0,5.0,60,0.00,,,0.00,Wunderground v.1.15,2013-01-22 17:50:00,
2013-01-22 11:55:00,7.5,-2.8,30.56,NW,306,5.0,7.0,62,0.00,,,0.00,Wunderground v.1.15,2013-01-22 17:55:00,
2013-01-22 12:05:00,8.6,-2.1,30.55,WNW,301,4.0,5.0,61,0.00,,,0.00,Wunderground v.1.15,2013-01-22 18:05:00,
2013-01-22 12:15:00,8.9,-2.5,30.54,WSW,254,4.0,10.0,59,0.00,,,0.00,Wunderground v.1.15,2013-01-22 18:15:00,
2013-01-22 12:20:00,8.2,-3.2,30.53,West,271,5.0,7.0,59,0.00,,,0.00,Wunderground v.1.15,2013-01-22 18:20:00,
2013-01-22 12:25:00,8.2,-2.8,30.53,NNW,346,5.0,7.0,60,0.00,,,0.00,Wunderground v.1.15,2013-01-22 18:25:00,
2013-01-22 12:30:00,8.7,-2.7,30.53,WSW,244,4.0,8.0,59,0.00,,,0.00,Wunderground v.1.15,2013-01-22 18:30:00,
2013-01-22 12:40:00,9.7,-2.5,30.53,West,280,3.0,7.0,57,0.00,,,0.00,Wunderground v.1.15,2013-01-22 18:40:00,
2013-01-22 12:45:00,9.2,-2.6,30.53,NW,313,4.0,7.0,58,0.00,,,0.00,Wunderground v.1.15,2013-01-22 18:45:00,
2013-01-22 12:55:00,9.9,-2.3,30.53,WNW,290,4.0,8.0,57,0.00,,,0.00,Wunderground v.1.15,2013-01-22 18:55:00,
2013-01-22 13:00:00,10.1,-2.5,30.52,West,268,4.0,4.0,56,0.00,,,0.00,Wunderground v.1.15,2013-01-22 19:00:00,
2013-01-22 13:05:00,10.3,-2.3,30.52,West,277,4.0,4.0,56,0.00,,,0.00,Wunderground v.1.15,2013-01-22 19:05:00,
2013-01-22 13:15:00,10.7,-1.9,30.53,West,281,4.0,5.0,56,0.00,,,0.00,Wunderground v.1.15,2013-01-22 19:15:00,
2013-01-22 13:20:00,10.6,-2.4,30.52,NW,315,3.0,3.0,55,0.00,,,0.00,Wunderground v.1.15,2013-01-22 19:20:00,
2013-01-22 13:25:00,10.5,-2.5,30.52,NW,312,3.0,9.0,55,0.00,,,0.00,Wunderground v.1.15,2013-01-22 19:25:00,
2013-01-22 13:35:00,10.8,-2.2,30.52,NNW,329,4.0,4.0,55,0.00,,,0.00,Wunderground v.1.15,2013-01-22 19:35:00,
2013-01-22 13:40:00,11.2,-1.8,30.52,NW,304,3.0,3.0,55,0.00,,,0.00,Wunderground v.1.15,2013-01-22 19:40:00,
2013-01-22 13:45:00,11.6,-1.9,30.52,WNW,300,2.0,3.0,54,0.00,,,0.00,Wunderground v.1.15,2013-01-22 19:45:00,
2013-01-22 13:55:00,10.9,-2.1,30.52,WNW,302,5.0,7.0,55,0.00,,,0.00,Wunderground v.1.15,2013-01-22 19:55:00,
2013-01-22 14:00:00,10.8,-2.6,30.51,SSW,206,4.0,6.0,54,0.00,,,0.00,Wunderground v.1.15,2013-01-22 20:00:00,
2013-01-22 14:05:00,11.2,-1.8,30.51,WNW,300,3.0,6.0,55,0.00,,,0.00,Wunderground v.1.15,2013-01-22 20:05:00,
2013-01-22 14:15:00,11.0,-2.4,30.52,NW,304,4.0,5.0,54,0.00,,,0.00,Wunderground v.1.15,2013-01-22 20:15:00,
2013-01-22 14:20:00,10.6,-2.8,30.52,NNW,336,4.0,6.0,54,0.00,,,0.00,Wunderground v.1.15,2013-01-22 20:20:00,
2013-01-22 14:30:00,10.2,-3.2,30.52,SW,232,4.0,4.0,54,0.00,,,0.00,Wunderground v.1.15,2013-01-22 20:30:00,
2013-01-22 14:35:00,10.5,-2.5,30.51,WSW,249,5.0,5.0,55,0.00,,,0.00,Wunderground v.1.15,2013-01-22 20:35:00,
2013-01-22 14:40:00,10.6,-2.8,30.51,NW,307,5.0,5.0,54,0.00,,,0.00,Wunderground v.1.15,2013-01-22 20:40:00,
2013-01-22 14:45:00,11.0,-2.4,30.51,WNW,302,5.0,5.0,54,0.00,,,0.00,Wunderground v.1.15,2013-01-22 20:45:00,
2013-01-22 14:50:00,11.1,-2.3,30.51,NW,306,3.0,3.0,54,0.00,,,0.00,Wunderground v.1.15,2013-01-22 20:50:00,
2013-01-22 14:55:00,10.9,-2.5,30.50,NW,314,3.0,9.0,54,0.00,,,0.00,Wunderground v.1.15,2013-01-22 20:55:00,
2013-01-22 15:05:00,10.6,-2.4,30.50,NW,317,4.0,5.0,55,0.00,,,0.00,Wunderground v.1.15,2013-01-22 21:05:00,
2013-01-22 15:15:00,10.7,-2.3,30.51,NW,319,3.0,4.0,55,0.00,,,0.00,Wunderground v.1.15,2013-01-22 21:15:00,
2013-01-22 15:20:00,10.3,-2.7,30.51,North,350,3.0,3.0,55,0.00,,,0.00,Wunderground v.1.15,2013-01-22 21:20:00,
2013-01-22 15:25:00,10.1,-0.7,30.51,NNW,333,4.0,4.0,61,0.00,,,0.00,Wunderground v.1.15,2013-01-22 21:25:00,
2013-01-22 15:30:00,10.1,-2.9,30.51,NW,309,4.0,8.0,55,0.00,,,0.00,Wunderground v.1.15,2013-01-22 21:30:00,
2013-01-22 15:40:00,10.1,-2.9,30.51,NNW,327,4.0,4.0,55,0.00,,,0.00,Wunderground v.1.15,2013-01-22 21:40:00,
2013-01-22 15:45:00,10.1,-2.9,30.51,NNW,337,3.0,6.0,55,0.00,,,0.00,Wunderground v.1.15,2013-01-22 21:45:00,
2013-01-22 15:50:00,10.2,-2.8,30.51,NNW,336,3.0,3.0,55,0.00,,,0.00,Wunderground v.1.15,2013-01-22 21:50:00,
2013-01-22 15:55:00,10.1,-2.9,30.51,WNW,289,3.0,3.0,55,0.00,,,0.00,Wunderground v.1.15,2013-01-22 21:55:00,
2013-01-22 16:05:00,9.9,-3.1,30.50,NNW,333,2.0,4.0,55,0.00,,,0.00,Wunderground v.1.15,2013-01-22 22:05:00,
2013-01-22 16:15:00,9.8,-3.2,30.50,NW,324,4.0,4.0,55,0.00,,,0.00,Wunderground v.1.15,2013-01-22 22:15:00,
2013-01-22 16:20:00,9.9,-3.1,30.50,NW,326,4.0,4.0,55,0.00,,,0.00,Wunderground v.1.15,2013-01-22 22:20:00,
2013-01-22 16:25:00,9.8,-3.5,30.50,NW,326,4.0,4.0,54,0.00,,,0.00,Wunderground v.1.15,2013-01-22 22:25:00,
2013-01-22 16:35:00,9.9,-2.7,30.51,NNW,329,2.0,5.0,56,0.00,,,0.00,Wunderground v.1.15,2013-01-22 22:35:00,
2013-01-22 16:40:00,9.8,-3.2,30.50,WNW,285,3.0,3.0,55,0.00,,,0.00,Wunderground v.1.15,2013-01-22 22:40:00,
2013-01-22 16:45:00,9.6,-3.3,30.50,West,259,3.0,3.0,55,0.00,,,0.00,Wunderground v.1.15,2013-01-22 22:45:00,
2013-01-22 16:55:00,9.2,-3.3,30.50,NNW,334,3.0,3.0,56,0.00,,,0.00,Wunderground v.1.15,2013-01-22 22:55:00,
2013-01-22 17:00:00,9.2,-3.0,30.50,NW,325,2.0,2.0,57,0.00,,,0.00,Wunderground v.1.15,2013-01-22 23:00:00,
2013-01-22 17:05:00,9.2,-3.0,30.50,West,263,2.0,2.0,57,0.00,,,0.00,Wunderground v.1.15,2013-01-22 23:05:00,
2013-01-22 17:15:00,9.1,-2.7,30.50,West,264,1.0,2.0,58,0.00,,,0.00,Wunderground v.1.15,2013-01-22 23:15:00,
2013-01-22 17:20:00,9.0,-2.8,30.50,NW,310,1.0,1.0,58,0.00,,,0.00,Wunderground v.1.15,2013-01-22 23:20:00,
2013-01-22 17:25:00,9.0,-2.8,30.50,NW,313,1.0,1.0,58,0.00,,,0.00,Wunderground v.1.15,2013-01-22 23:25:00,
2013-01-22 17:30:00,8.9,-2.9,30.50,NNW,333,1.0,2.0,58,0.00,,,0.00,Wunderground v.1.15,2013-01-22 23:30:00,
2013-01-22 17:35:00,8.7,-3.1,30.50,NNW,331,1.0,2.0,58,0.00,,,0.00,Wunderground v.1.15,2013-01-22 23:35:00,
2013-01-22 17:45:00,8.4,-3.0,30.50,NNW,332,0.0,1.0,59,0.00,,,0.00,Wunderground v.1.15,2013-01-22 23:45:00,
2013-01-22 17:50:00,8.3,-3.1,30.50,NNW,338,1.0,1.0,59,0.00,,,0.00,Wunderground v.1.15,2013-01-22 23:50:00,
2013-01-22 17:55:00,8.2,-2.8,30.50,NNW,338,1.0,1.0,60,0.00,,,0.00,Wunderground v.1.15,2013-01-22 23:55:00,
2013-01-22 18:00:00,8.1,-2.9,30.50,NNW,338,0.0,0.0,60,0.00,,,0.00,Wunderground v.1.15,2013-01-23 00:00:00,
2013-01-22 18:05:00,8.1,-2.9,30.50,NNW,338,0.0,1.0,60,0.00,,,0.00,Wunderground v.1.15,2013-01-23 00:05:00,
2013-01-22 18:15:00,8.1,-2.6,30.50,NNW,338,0.0,0.0,61,0.00,,,0.00,Wunderground v.1.15,2013-01-23 00:15:00,
2013-01-22 18:20:00,8.1,-2.6,30.50,NNW,333,0.0,1.0,61,0.00,,,0.00,Wunderground v.1.15,2013-01-23 00:20:00,
2013-01-22 18:25:00,8.2,-2.5,30.50,NNW,333,1.0,1.0,61,0.00,,,0.00,Wunderground v.1.15,2013-01-23 00:25:00,
2013-01-22 18:30:00,8.2,-2.5,30.50,NNW,333,0.0,0.0,61,0.00,,,0.00,Wunderground v.1.15,2013-01-23 00:30:00,
2013-01-22 18:35:00,8.2,-2.5,30.50,NNW,333,0.0,0.0,61,0.00,,,0.00,Wunderground v.1.15,2013-01-23 00:35:00,
2013-01-22 18:45:00,8.2,-2.5,30.50,NNW,335,1.0,1.0,61,0.00,,,0.00,Wunderground v.1.15,2013-01-23 00:45:00,
2013-01-22 18:50:00,8.3,-2.4,30.50,NNW,334,0.0,1.0,61,0.00,,,0.00,Wunderground v.1.15,2013-01-23 00:50:00,
2013-01-22 18:55:00,8.3,-2.4,30.50,NNW,335,0.0,1.0,61,0.00,,,0.00,Wunderground v.1.15,2013-01-23 00:55:00,
2013-01-22 19:00:00,8.3,-2.4,30.50,NNW,334,1.0,1.0,61,0.00,,,0.00,Wunderground v.1.15,2013-01-23 01:00:00,
2013-01-22 19:05:00,8.4,-2.3,30.50,NNW,334,1.0,1.0,61,0.00,,,0.00,Wunderground v.1.15,2013-01-23 01:05:00,
2013-01-22 19:15:00,8.5,-2.2,30.50,NNW,330,1.0,2.0,61,0.00,,,0.00,Wunderground v.1.15,2013-01-23 01:15:00,
2013-01-22 19:25:00,8.5,-2.2,30.50,NNW,330,1.0,1.0,61,0.00,,,0.00,Wunderground v.1.15,2013-01-23 01:25:00,
2013-01-22 19:30:00,8.5,-2.2,30.50,NNW,342,1.0,1.0,61,0.00,,,0.00,Wunderground v.1.15,2013-01-23 01:30:00,
2013-01-22 19:35:00,8.4,-2.3,30.50,NW,315,1.0,3.0,61,0.00,,,0.00,Wunderground v.1.15,2013-01-23 01:35:00,
2013-01-22 19:40:00,8.5,-2.2,30.50,NNW,331,1.0,2.0,61,0.00,,,0.00,Wunderground v.1.15,2013-01-23 01:40:00,
2013-01-22 19:50:00,8.5,-2.2,30.50,NW,323,1.0,1.0,61,0.00,,,0.00,Wunderground v.1.15,2013-01-23 01:50:00,
2013-01-22 19:55:00,8.5,-1.9,30.50,NW,325,1.0,1.0,62,0.00,,,0.00,Wunderground v.1.15,2013-01-23 01:55:00,
2013-01-22 20:00:00,8.5,-1.9,30.50,NW,325,0.0,0.0,62,0.00,,,0.00,Wunderground v.1.15,2013-01-23 02:00:00,
2013-01-22 20:05:00,8.5,-1.9,30.50,NW,326,1.0,1.0,62,0.00,,,0.00,Wunderground v.1.15,2013-01-23 02:05:00,
2013-01-22 20:15:00,8.6,-1.8,30.49,NW,326,0.0,1.0,62,0.00,,,0.00,Wunderground v.1.15,2013-01-23 02:15:00,
2013-01-22 20:25:00,8.7,-1.7,30.50,NW,326,0.0,1.0,62,0.00,,,0.00,Wunderground v.1.15,2013-01-23 02:25:00,
2013-01-22 20:30:00,8.7,-1.7,30.50,NW,326,0.0,1.0,62,0.00,,,0.00,Wunderground v.1.15,2013-01-23 02:30:00,
2013-01-22 20:35:00,8.7,-1.7,30.50,NW,326,0.0,1.0,62,0.00,,,0.00,Wunderground v.1.15,2013-01-23 02:35:00,
2013-01-22 20:40:00,8.7,-2.0,30.50,NW,322,1.0,1.0,61,0.00,,,0.00,Wunderground v.1.15,2013-01-23 02:40:00,
2013-01-22 20:50:00,8.7,-2.0,30.50,NNW,338,1.0,1.0,61,0.00,,,0.00,Wunderground v.1.15,2013-01-23 02:50:00,
2013-01-22 20:55:00,8.7,-2.0,30.51,NNW,334,1.0,1.0,61,0.00,,,0.00,Wunderground v.1.15,2013-01-23 02:55:00,
2013-01-22 21:00:00,8.8,-1.6,30.51,WNW,296,0.0,1.0,62,0.00,,,0.00,Wunderground v.1.15,2013-01-23 03:00:00,
2013-01-22 21:05:00,8.9,-1.5,30.51,NW,322,1.0,1.0,62,0.00,,,0.00,Wunderground v.1.15,2013-01-23 03:05:00,
2013-01-22 21:15:00,8.9,-1.5,30.50,WNW,288,0.0,1.0,62,0.00,,,0.00,Wunderground v.1.15,2013-01-23 03:15:00,
2013-01-22 21:20:00,9.0,-1.4,30.50,WNW,300,0.0,0.0,62,0.00,,,0.00,Wunderground v.1.15,2013-01-23 03:20:00,
2013-01-22 21:25:00,8.9,-1.5,30.50,NW,324,1.0,1.0,62,0.00,,,0.00,Wunderground v.1.15,2013-01-23 03:25:00,
2013-01-22 21:30:00,9.0,-1.4,30.50,NW,315,1.0,1.0,62,0.00,,,0.00,Wunderground v.1.15,2013-01-23 03:30:00,
2013-01-22 21:40:00,9.0,-1.4,30.50,NW,315,0.0,0.0,62,0.00,,,0.00,Wunderground v.1.15,2013-01-23 03:40:00,
2013-01-22 21:45:00,9.1,-1.0,30.50,NW,315,0.0,1.0,63,0.00,,,0.00,Wunderground v.1.15,2013-01-23 03:45:00,
2013-01-22 21:50:00,9.1,-1.3,30.50,West,269,1.0,1.0,62,0.00,,,0.00,Wunderground v.1.15,2013-01-23 03:50:00,
2013-01-22 21:55:00,9.1,-1.3,30.50,West,271,1.0,1.0,62,0.00,,,0.00,Wunderground v.1.15,2013-01-23 03:55:00,
2013-01-22 22:05:00,9.2,-0.9,30.50,West,267,0.0,3.0,63,0.00,,,0.00,Wunderground v.1.15,2013-01-23 04:05:00,
2013-01-22 22:15:00,9.1,-1.3,30.50,WNW,298,1.0,1.0,62,0.00,,,0.00,Wunderground v.1.15,2013-01-23 04:15:00,
2013-01-22 22:20:00,9.0,-1.4,30.50,WNW,298,0.0,0.0,62,0.00,,,0.00,Wunderground v.1.15,2013-01-23 04:20:00,
2013-01-22 22:30:00,8.9,-1.1,30.50,WNW,296,0.0,0.0,63,0.00,,,0.00,Wunderground v.1.15,2013-01-23 04:30:00,
2013-01-22 22:35:00,9.1,-1.0,30.50,WNW,296,0.0,2.0,63,0.00,,,0.00,Wunderground v.1.15,2013-01-23 04:35:00,
2013-01-22 22:45:00,9.2,-0.9,30.50,West,275,0.0,1.0,63,0.00,,,0.00,Wunderground v.1.15,2013-01-23 04:45:00,
2013-01-22 22:50:00,9.2,-1.2,30.50,West,273,1.0,2.0,62,0.00,,,0.00,Wunderground v.1.15,2013-01-23 04:50:00,
2013-01-22 22:55:00,9.3,-0.8,30.50,West,277,1.0,2.0,63,0.00,,,0.00,Wunderground v.1.15,2013-01-23 04:55:00,
2013-01-22 23:05:00,9.4,-0.7,30.51,West,273,0.0,0.0,63,0.00,,,0.00,Wunderground v.1.15,2013-01-23 05:05:00,
2013-01-22 23:15:00,9.5,-0.6,30.51,WNW,291,0.0,1.0,63,0.00,,,0.00,Wunderground v.1.15,2013-01-23 05:15:00,
2013-01-22 23:20:00,9.5,-0.6,30.50,WNW,290,0.0,0.0,63,0.00,,,0.00,Wunderground v.1.15,2013-01-23 05:20:00,
2013-01-22 23:25:00,9.5,-0.6,30.50,WNW,290,1.0,3.0,63,0.00,,,0.00,Wunderground v.1.15,2013-01-23 05:25:00,
2013-01-22 23:30:00,9.5,-0.6,30.50,WNW,290,1.0,1.0,63,0.00,,,0.00,Wunderground v.1.15,2013-01-23 05:30:00,
2013-01-22 23:40:00,9.6,-0.5,30.50,WNW,294,1.0,1.0,63,0.00,,,0.00,Wunderground v.1.15,2013-01-23 05:40:00,
2013-01-22 23:45:00,9.6,-0.8,30.49,West,280,1.0,1.0,62,0.00,,,0.00,Wunderground v.1.15,2013-01-23 05:45:00,
2013-01-22 23:50:00,9.6,-0.8,30.49,NW,309,1.0,1.0,62,0.00,,,0.00,Wunderground v.1.15,2013-01-23 05:50:00,
2013-01-22 23:55:00,9.7,-0.4,30.49,SW,225,0.0,3.0,63,0.00,,,0.00,Wunderground v.1.15,2013-01-23 05:55:00,